Weather History for KFBG - February, 2014

Change the Weather History Date:

Friday, February 21, 2014

  Actual Average Record
Temperature  
Mean Temperature 59 °F -  
Max Temperature 72 °F 56 °F 77 °F (1997)
Min Temperature 46 °F 35 °F 18 °F (2015)
Degree Days  
Heating Degree Days 6    
Growing Degree Days 9 (Base 50)    
Moisture  
Dew Point 58 °F    
Average Humidity 88    
Maximum Humidity 100    
Minimum Humidity 71    
Precipitation  
Precipitation 0.47 in - - ()
Sea Level Pressure  
Sea Level Pressure 29.93 in    
Wind  
Wind Speed 10 mph (SW)    
Max Wind Speed 30 mph    
Max Gust Speed 39 mph    
Visibility 7 miles    
Events Fog , Rain , Thunderstorm    
Averages and records for this station are not official NWS values.
T = Trace of Precipitation, MM = Missing Value Source: NWS Daily Summary

Daily Weather History Graph

Daily Weather History Graph

Search for Another Location

Airport or City:

Trip Planner

Search our weather history database for the weather conditions in past years. The results will help you decide how hot, cold, wet, or windy it might be!

Date:

Astronomy

Feb. 21, 2014 Rise Set
Actual Time 6:55 AM EST 6:04 PM EST
Civil Twilight 6:29 AM EST 6:29 PM EST
Nautical Twilight 5:59 AM EST 6:59 PM EST
Astronomical Twilight 5:30 AM EST 7:28 PM EST
Moon No Moon Rise 10:33 AM EST (2/21)
Length of Visible Light 12h 00m
Length of Day
11h 08m
Waning Gibbous, 61% of the Moon is Illuminated
Feb 21
Waning Gibbous
Feb 22
Last Quarter
Mar 1
New
Mar 8
First Quarter
Mar 16
Full

Hourly Weather History & Observations

Time (EST) Temp. Dew Point Humidity Pressure Visibility Wind Dir Wind Speed Gust Speed Precip Events Conditions
12:18 AM 66.2 °F 62.6 °F 88% 30.02 in 10.0 mi South 9.2 mph - N/A   Mostly Cloudy
12:26 AM 64.4 °F 62.6 °F 94% 30.01 in 10.0 mi South 9.2 mph - N/A   Mostly Cloudy
12:58 AM 64.9 °F 62.6 °F 92% 30.00 in 10.0 mi South 11.5 mph - N/A   Mostly Cloudy
1:00 AM 64.4 °F 62.6 °F 94% 29.99 in 10.0 mi South 11.5 mph - N/A   Overcast
1:58 AM 65.3 °F 62.6 °F 91% 29.99 in 10.0 mi South 9.2 mph - N/A   Overcast
2:08 AM 66.2 °F 62.6 °F 88% 29.99 in 10.0 mi SSW 10.4 mph - N/A   Overcast
2:58 AM 64.9 °F 62.1 °F 90% 29.99 in 10.0 mi South 9.2 mph - N/A   Overcast
3:20 AM 64.4 °F 62.6 °F 94% 29.98 in 10.0 mi South 6.9 mph - N/A   Mostly Cloudy
3:22 AM 64.4 °F 62.6 °F 94% 29.98 in 10.0 mi South 8.1 mph - N/A   Mostly Cloudy
3:24 AM 64.4 °F 62.6 °F 94% 29.98 in 10.0 mi South 6.9 mph - N/A   Mostly Cloudy
3:28 AM 64.4 °F 60.8 °F 88% 29.98 in 10.0 mi South 9.2 mph - N/A   Mostly Cloudy
3:48 AM 64.4 °F 60.8 °F 88% 29.97 in 10.0 mi South 10.4 mph 18.4 mph N/A   Mostly Cloudy
3:50 AM 64.4 °F 60.8 °F 88% 29.97 in 10.0 mi South 10.4 mph 18.4 mph N/A   Mostly Cloudy
3:58 AM 64.6 °F 61.7 °F 90% 29.98 in 10.0 mi South 9.2 mph - N/A   Scattered Clouds
4:40 AM 64.4 °F 60.8 °F 88% 29.96 in 10.0 mi Variable 6.9 mph - N/A   Mostly Cloudy
4:44 AM 64.4 °F 60.8 °F 88% 29.96 in 10.0 mi South 10.4 mph - N/A   Mostly Cloudy
4:58 AM 64.8 °F 61.5 °F 89% 29.96 in 10.0 mi South 9.2 mph - N/A   Mostly Cloudy
5:58 AM 65.7 °F 62.1 °F 88% 29.95 in 10.0 mi South 10.4 mph 18.4 mph N/A   Overcast
6:58 AM 66.2 °F 62.6 °F 88% 29.94 in 10.0 mi South 10.4 mph 23.0 mph N/A   Overcast
7:58 AM 66.9 °F 62.8 °F 87% 29.93 in 10.0 mi South 12.7 mph 20.7 mph N/A   Mostly Cloudy
8:58 AM 68.0 °F 63.5 °F 85% 29.94 in 10.0 mi SSW 11.5 mph 20.7 mph N/A   Overcast
9:30 AM 69.8 °F 64.4 °F 83% 29.91 in 10.0 mi South 9.2 mph 18.4 mph N/A   Mostly Cloudy
9:40 AM 69.8 °F 62.6 °F 78% 29.91 in 10.0 mi South 12.7 mph 23.0 mph N/A   Scattered Clouds
9:58 AM 70.3 °F 63.5 °F 79% 29.91 in 10.0 mi SSW 13.8 mph 23.0 mph N/A   Scattered Clouds
10:20 AM 71.6 °F 62.6 °F 73% 29.89 in 10.0 mi SSW 12.7 mph 25.3 mph N/A   Mostly Cloudy
10:58 AM 71.4 °F 63.3 °F 76% 29.90 in 10.0 mi SSW 13.8 mph 25.3 mph N/A   Mostly Cloudy
11:12 AM 71.6 °F 62.6 °F 73% 29.88 in 10.0 mi SSW 11.5 mph 23.0 mph N/A   Mostly Cloudy
11:30 AM 71.6 °F 62.6 °F 73% 29.87 in 10.0 mi SSW 11.5 mph 20.7 mph N/A Rain Light Rain
11:36 AM 71.6 °F 64.4 °F 78% 29.87 in 10.0 mi SSW 11.5 mph 20.7 mph N/A Rain Light Rain
11:42 AM 71.6 °F 64.4 °F 78% 29.86 in 10.0 mi SSW 12.7 mph 20.7 mph N/A Rain Light Rain
11:44 AM 71.6 °F 64.4 °F 78% 29.86 in 10.0 mi South 11.5 mph 20.7 mph N/A Rain Light Rain
11:46 AM 71.6 °F 64.4 °F 78% 29.85 in 10.0 mi SSW 12.7 mph 20.7 mph N/A   Mostly Cloudy
11:58 AM 72.0 °F 64.2 °F 77% 29.86 in 10.0 mi SSW 10.4 mph 19.6 mph 0.00 in   Mostly Cloudy
12:08 PM 71.6 °F 64.4 °F 78% 29.85 in 10.0 mi SSW 13.8 mph 20.7 mph N/A Thunderstorm Scattered Clouds
12:12 PM 71.6 °F 64.4 °F 78% 29.85 in 10.0 mi SSW 10.4 mph 20.7 mph N/A Thunderstorm Mostly Cloudy
12:16 PM 71.6 °F 64.4 °F 78% 29.85 in 10.0 mi SW 17.3 mph 32.2 mph N/A   Mostly Cloudy
12:27 PM 71.6 °F 64.4 °F 78% 29.85 in 10.0 mi WSW 24.2 mph 28.8 mph N/A Rain , Thunderstorm Light Rain
12:28 PM 71.6 °F 64.4 °F 78% 29.85 in 10.0 mi WSW 24.2 mph 31.1 mph N/A Rain , Thunderstorm Light Rain
12:36 PM 66.2 °F 60.8 °F 83% 29.86 in 4.0 mi WSW 26.5 mph 39.1 mph N/A Rain , Thunderstorm Light Thunderstorms and Rain
12:38 PM 66.2 °F 60.8 °F 83% 29.86 in 2.5 mi WSW 23.0 mph 39.1 mph N/A Rain , Thunderstorm Heavy Thunderstorms and Rain
12:40 PM 64.4 °F 60.8 °F 88% 29.87 in 1.8 mi WSW 21.9 mph 33.4 mph N/A Rain , Thunderstorm Heavy Thunderstorms and Rain
12:42 PM 64.4 °F 60.8 °F 88% 29.90 in 1.0 mi WSW 26.5 mph 38.0 mph N/A Rain , Thunderstorm Heavy Thunderstorms and Rain
12:44 PM 64.4 °F 60.8 °F 88% 29.86 in 0.5 mi WSW 29.9 mph 39.1 mph N/A Fog , Rain , Thunderstorm Heavy Thunderstorms and Rain
12:45 PM 64.4 °F 60.8 °F 88% 29.86 in 0.2 mi WSW 27.6 mph 39.1 mph N/A Fog , Rain , Thunderstorm Heavy Thunderstorms and Rain
12:51 PM 62.6 °F 60.8 °F 94% 29.85 in 0.2 mi SW 15.0 mph 39.1 mph N/A Fog , Rain , Thunderstorm Thunderstorms and Rain
12:53 PM 62.6 °F 59.0 °F 88% 29.85 in 0.8 mi SW 13.8 mph 39.1 mph N/A Rain , Thunderstorm Light Thunderstorms and Rain
12:55 PM 62.6 °F 59.0 °F 88% 29.85 in 2.0 mi SW 11.5 mph 28.8 mph N/A Rain , Thunderstorm Light Thunderstorms and Rain
12:57 PM 62.6 °F 59.0 °F 88% 29.84 in 5.0 mi SW 12.7 mph 28.8 mph N/A Rain , Thunderstorm Light Thunderstorms and Rain
12:58 PM 62.6 °F 59.4 °F 89% 29.85 in 5.0 mi SW 11.5 mph 20.7 mph 0.43 in Rain , Thunderstorm Light Thunderstorms and Rain
1:07 PM 62.6 °F 59.0 °F 88% 29.81 in 7.0 mi SSW 9.2 mph - N/A Rain Rain
1:32 PM 62.6 °F 59.0 °F 88% 29.83 in 10.0 mi SW 9.2 mph - N/A   Scattered Clouds
1:58 PM 63.1 °F 59.7 °F 89% 29.84 in 10.0 mi SW 6.9 mph - 0.03 in   Clear
2:56 PM 64.4 °F 60.8 °F 88% 29.84 in 10.0 mi WSW 11.5 mph - N/A   Mostly Cloudy
2:58 PM 64.6 °F 60.8 °F 88% 29.85 in 10.0 mi WSW 11.5 mph - N/A   Mostly Cloudy
3:16 PM 66.2 °F 60.8 °F 83% 29.83 in 10.0 mi SW 10.4 mph - N/A   Scattered Clouds
3:58 PM 67.6 °F 60.8 °F 79% 29.84 in 10.0 mi WSW 13.8 mph - 0.01 in   Partly Cloudy
4:58 PM 68.0 °F 59.0 °F 73% 29.86 in 10.0 mi WSW 10.4 mph - N/A   Clear
5:58 PM 66.4 °F 59.0 °F 77% 29.90 in 10.0 mi SW 3.5 mph - N/A   Partly Cloudy
6:11 PM 62.6 °F 55.4 °F 77% 29.92 in 10.0 mi NW 13.8 mph 19.6 mph N/A   Scattered Clouds
6:13 PM 62.6 °F 55.4 °F 77% 29.92 in 10.0 mi NW 12.7 mph 19.6 mph N/A   Mostly Cloudy
6:23 PM 62.6 °F 53.6 °F 72% 29.93 in 10.0 mi NNW 8.1 mph - N/A   Mostly Cloudy
6:58 PM 60.6 °F 52.5 °F 75% 29.96 in 10.0 mi NNW 3.5 mph - N/A   Mostly Cloudy
7:58 PM 57.2 °F 50.7 °F 79% 29.98 in 10.0 mi NNW 2.3 mph - N/A   Clear
8:58 PM 53.4 °F 49.5 °F 86% 29.99 in 10.0 mi Calm Calm - N/A   Clear
9:48 PM 50.0 °F 50.0 °F 100% 29.99 in 2.0 mi Calm Calm - N/A   Clear
9:50 PM 50.0 °F 50.0 °F 100% 30.00 in 1.8 mi Calm Calm - N/A   Clear
9:56 PM 50.0 °F 50.0 °F 100% 30.00 in 2.0 mi Calm Calm - N/A   Clear
9:58 PM 50.2 °F 49.8 °F 99% 30.01 in 4.0 mi Calm Calm - N/A   Clear
10:54 PM 48.2 °F 48.2 °F 100% 30.02 in 2.0 mi Calm Calm - N/A   Clear
10:56 PM 48.2 °F 48.2 °F 100% 30.02 in 1.2 mi Calm Calm - N/A   Clear
10:58 PM 47.7 °F 47.3 °F 99% 30.03 in 1.2 mi Calm Calm - N/A   Clear
11:00 PM 48.2 °F 48.2 °F 100% 30.02 in 1.5 mi Calm Calm - N/A   Clear
11:02 PM 48.2 °F 48.2 °F 100% 30.02 in 1.8 mi Calm Calm - N/A   Clear
11:04 PM 48.2 °F 48.2 °F 100% 30.02 in 2.0 mi Calm Calm - N/A   Clear
11:06 PM 48.2 °F 48.2 °F 100% 30.02 in 3.0 mi Calm Calm - N/A   Clear
11:08 PM 48.2 °F 48.2 °F 100% 30.02 in 1.0 mi Calm Calm - N/A   Clear
11:10 PM 48.2 °F 46.4 °F 93% 30.02 in 0.8 mi Calm Calm - N/A   Clear
11:12 PM 46.4 °F 46.4 °F 100% 30.02 in 0.5 mi Calm Calm - N/A Fog Fog
11:18 PM 46.4 °F 46.4 °F 100% 30.02 in 0.8 mi Calm Calm - N/A   Clear
11:20 PM 46.4 °F 46.4 °F 100% 30.02 in 1.0 mi Calm Calm - N/A   Clear
11:22 PM 46.4 °F 46.4 °F 100% 30.02 in 1.2 mi NW 1.2 mph - N/A   Clear
11:24 PM 46.4 °F 46.4 °F 100% 30.02 in 1.5 mi NNW 1.2 mph - N/A   Clear
11:26 PM 46.4 °F 46.4 °F 100% 30.02 in 2.5 mi Calm Calm - N/A   Clear
11:28 PM 46.4 °F 46.4 °F 100% 30.02 in 6.0 mi Calm Calm - N/A   Clear
11:58 PM 48.0 °F 38.8 °F 71% 30.04 in 10.0 mi NNW 5.8 mph - N/A   Clear